Zurück zum Katalog

SL-3 DEB

AktivPO
NORAD 15521·DEBRIS·🇷🇺 Russia

Gestartet Oct 28, 1974 von Plesetsk Cosmodrome

Loading…

Nächste Überflüge (nächste 24 Stunden)

TLE

AktuellSource: Space-Track

Epoche: Sep 13, 2026, 15:17 UTC

1 15521U 74083C   26256.63718422  .00000056  00000-0  24664-4 0  9997
2 15521  81.2118 100.9589 0055833 222.0403 201.9647 14.09700505670795

Verfolge SL-3 DEB in Echtzeit mit AllMySat

Download on the App Store